Weather History for New Bedford, MA

Change the Weather History Date:

Monday, December 10, 2012

  Actual Average Record
Temperature  
Mean Temperature 52 °F -  
Max Temperature 61 °F 44 °F 61 °F (2012)
Min Temperature 44 °F 30 °F 5 °F (2000)
Degree Days  
Heating Degree Days 12    
Growing Degree Days 2 (Base 50)    
Moisture  
Dew Point 54 °F    
Average Humidity 93    
Maximum Humidity 100    
Minimum Humidity 87    
Precipitation  
Precipitation 2.01 in - - ()
Sea Level Pressure  
Sea Level Pressure 29.76 in    
Wind  
Wind Speed 11 mph (SSW)    
Max Wind Speed 20 mph    
Max Gust Speed 30 mph    
Visibility 4 miles    
Events Rain , Thunderstorm    
Averages and records for this station are not official NWS values.
T = Trace of Precipitation, MM = Missing Value Source: NWS Daily Summary

Daily Weather History Graph

Daily Weather History Graph

Search for Another Location

Airport:

Trip Planner

Search our weather history database for the weather conditions in past years. The results will help you decide how hot, cold, wet, or windy it might be!

Date:

Astronomy

Dec. 10, 2012 Rise Set
Actual Time 7:00 AM EST 4:13 PM EST
Civil Twilight 6:28 AM EST 4:44 PM EST
Nautical Twilight 5:54 AM EST 5:19 PM EST
Astronomical Twilight 5:20 AM EST 5:53 PM EST
Moon 3:38 AM EST (12/10) 2:01 PM EST (12/10)
Length of Visible Light 10h 15m
Length of Day
9h 13m
Waning Crescent, 10% of the Moon is Illuminated
Dec 10
Waning Crescent
Dec 13
New
Dec 20
First Quarter
Dec 28
Full
Jan 4
Last Quarter

Hourly Weather History & Observations

Time (EST) Temp. Windchill Dew Point Humidity Pressure Visibility Wind Dir Wind Speed Gust Speed Precip Events Conditions
12:13 AM 44.6 °F 41.4 °F 42.8 °F 93% 30.11 in 6.0 mi East 5.8 mph - 0.01 in Rain Light Rain
12:38 AM 44.6 °F 39.7 °F 42.8 °F 93% 30.08 in 10.0 mi ESE 9.2 mph 18.4 mph 0.01 in Rain Light Rain
12:53 AM 45.0 °F 40.1 °F 43.0 °F 93% 30.07 in 10.0 mi East 9.2 mph - 0.01 in Rain Light Rain
12:55 AM 44.6 °F 38.8 °F 42.8 °F 93% 30.07 in 10.0 mi ESE 11.5 mph - 0.00 in Rain Light Rain
1:05 AM 44.6 °F 39.2 °F 42.8 °F 93% 30.06 in 5.0 mi East 10.4 mph - 0.00 in Rain Light Rain
1:43 AM 46.4 °F 40.4 °F 42.8 °F 87% 30.04 in 9.0 mi East 13.8 mph 21.9 mph 0.03 in Rain Light Rain
1:53 AM 46.0 °F 41.0 °F 43.0 °F 89% 30.03 in 6.0 mi East 10.4 mph - 0.05 in Rain Rain
2:05 AM 44.6 °F 38.8 °F 42.8 °F 93% 30.03 in 4.0 mi East 11.5 mph - 0.02 in Rain Light Rain
2:37 AM 46.4 °F 41.9 °F 44.6 °F 93% 30.02 in 4.0 mi East 9.2 mph - N/A Rain Rain
2:53 AM 46.0 °F 43.1 °F 44.1 °F 93% 30.02 in 3.0 mi East 5.8 mph - 0.14 in Rain Rain
3:00 AM 46.4 °F 41.9 °F 44.6 °F 93% 30.01 in 2.5 mi East 9.2 mph - 0.01 in Rain Rain
3:07 AM 46.4 °F 43.5 °F 44.6 °F 93% 30.00 in 3.0 mi East 5.8 mph - 0.03 in Rain Rain
3:16 AM 46.4 °F 42.4 °F 44.6 °F 93% 29.99 in 2.5 mi East 8.1 mph - 0.05 in Rain Rain
3:35 AM 46.4 °F 44.3 °F 44.6 °F 93% 29.98 in 4.0 mi WSW 4.6 mph - N/A Rain Light Rain
3:53 AM 46.9 °F - 45.0 °F 93% 29.96 in 4.0 mi SSE 6.9 mph - 0.07 in Rain Light Rain
4:53 AM 48.9 °F - 48.0 °F 97% 29.90 in 4.0 mi Calm Calm - 0.02 in Rain Light Rain
5:24 AM 51.8 °F - 51.8 °F 100% 29.88 in 2.0 mi SSW 8.1 mph - 0.00 in   Overcast
5:35 AM 55.4 °F - 53.6 °F 94% 29.88 in 7.0 mi SSW 15.0 mph 21.9 mph 0.00 in Rain Light Rain
5:45 AM 57.2 °F - 55.4 °F 94% 29.87 in 3.0 mi SSW 12.7 mph 20.7 mph 0.03 in Rain Rain
5:53 AM 57.0 °F - 55.0 °F 93% 29.87 in 5.0 mi SSW 13.8 mph 23.0 mph 0.04 in Rain Light Rain
6:53 AM 57.0 °F - 55.9 °F 96% 29.84 in 6.0 mi South 10.4 mph - 0.07 in Rain Light Rain
7:53 AM 60.1 °F - 57.9 °F 93% 29.82 in 4.0 mi SSW 18.4 mph 27.6 mph 0.11 in Rain Light Rain
8:53 AM 60.1 °F - 57.9 °F 93% 29.82 in 3.0 mi SW 12.7 mph 23.0 mph 0.09 in Rain Light Rain
8:55 AM 60.8 °F - 57.2 °F 88% 29.81 in 2.0 mi SW 15.0 mph 23.0 mph 0.01 in Rain Light Rain
9:53 AM 60.1 °F - 57.9 °F 93% 29.81 in 7.0 mi SW 15.0 mph 24.2 mph 0.05 in Rain Light Rain
10:00 AM 60.8 °F - 57.2 °F 88% 29.80 in 3.0 mi SW 12.7 mph 20.7 mph 0.00 in Rain Light Rain
10:53 AM 60.1 °F - 57.9 °F 93% 29.77 in 5.0 mi SW 11.5 mph 20.7 mph 0.01 in Rain Light Rain
11:24 AM 60.8 °F - 57.2 °F 88% 29.75 in 1.5 mi SSW 15.0 mph - N/A Rain Light Rain
11:31 AM 60.8 °F - 59.0 °F 94% 29.74 in 5.0 mi SSW 16.1 mph 21.9 mph 0.13 in Rain Light Rain
11:53 AM 60.1 °F - 57.9 °F 93% 29.73 in 4.0 mi SSW 16.1 mph 21.9 mph 0.15 in Rain Light Rain
12:28 PM 60.8 °F - 59.0 °F 94% 29.70 in 5.0 mi SW 16.1 mph 26.5 mph 0.00 in Rain , Thunderstorm Light Rain
12:43 PM 60.8 °F - 59.0 °F 94% 29.69 in 3.0 mi WSW 16.1 mph 27.6 mph 0.06 in Rain Rain
12:53 PM 60.1 °F - 57.9 °F 93% 29.70 in 7.0 mi WSW 12.7 mph 20.7 mph 0.06 in Rain Light Rain
12:57 PM 60.8 °F - 57.2 °F 88% 29.69 in 2.5 mi SW 15.0 mph 19.6 mph 0.05 in Rain , Thunderstorm Light Rain
1:04 PM 60.8 °F - 57.2 °F 88% 29.69 in 3.0 mi SW 13.8 mph - N/A Rain , Thunderstorm Rain
1:22 PM 60.8 °F - 59.0 °F 94% 29.68 in 3.0 mi SW 16.1 mph 21.9 mph 0.32 in Rain , Thunderstorm Light Thunderstorms and Rain
1:53 PM 61.0 °F - 59.0 °F 93% 29.67 in 2.0 mi SW 9.2 mph - 0.59 in Rain Heavy Rain
2:04 PM 60.8 °F - 59.0 °F 94% 29.67 in 2.0 mi SSW 6.9 mph - 0.02 in Rain , Thunderstorm Light Thunderstorms and Rain
2:18 PM 60.8 °F - 59.0 °F 94% 29.65 in 2.0 mi South 10.4 mph - 0.09 in Rain Rain
2:28 PM 60.8 °F - 59.0 °F 94% 29.65 in 3.0 mi SSW 15.0 mph 23.0 mph 0.12 in Rain Rain
2:51 PM 60.8 °F - 59.0 °F 94% 29.65 in 2.5 mi SSW 18.4 mph 27.6 mph 0.12 in Rain Light Rain
2:53 PM 61.0 °F - 59.0 °F 93% 29.65 in 2.5 mi SSW 17.3 mph 25.3 mph 0.12 in Rain Light Rain
3:18 PM 60.8 °F - 57.2 °F 88% 29.64 in 4.0 mi SSW 19.6 mph 29.9 mph 0.02 in Rain Light Rain
3:53 PM 60.1 °F - 57.9 °F 93% 29.63 in 2.0 mi SSW 16.1 mph 28.8 mph 0.05 in Rain Rain
4:04 PM 60.8 °F - 59.0 °F 94% 29.62 in 5.0 mi SW 17.3 mph 24.2 mph 0.00 in Rain Light Rain
4:20 PM 60.8 °F - 59.0 °F 94% 29.61 in 2.5 mi SSW 19.6 mph 25.3 mph 0.00 in   Overcast
4:30 PM 60.8 °F - 59.0 °F 94% 29.61 in 1.8 mi SSW 15.0 mph 24.2 mph 0.00 in   Overcast
4:37 PM 60.8 °F - 59.0 °F 94% 29.61 in 3.0 mi SSW 17.3 mph 24.2 mph 0.00 in   Overcast
4:53 PM 60.1 °F - 59.0 °F 96% 29.60 in 1.8 mi SSW 17.3 mph 25.3 mph 0.04 in Rain Light Rain
5:01 PM 60.8 °F - 59.0 °F 94% 29.60 in 3.0 mi SSW 16.1 mph 23.0 mph 0.01 in Rain Light Rain
5:33 PM 60.8 °F - 59.0 °F 94% 29.58 in 2.5 mi SSW 15.0 mph 21.9 mph 0.12 in Rain Light Rain
5:40 PM 60.8 °F - 59.0 °F 94% 29.57 in 7.0 mi SSW 13.8 mph - 0.12 in Rain Light Rain
5:53 PM 61.0 °F - 59.0 °F 93% 29.56 in 5.0 mi SSW 15.0 mph - 0.12 in Rain Light Rain
6:17 PM 60.8 °F - 59.0 °F 94% 29.55 in 2.0 mi South 12.7 mph - 0.06 in Rain Rain
6:39 PM 60.8 °F - 59.0 °F 94% 29.54 in 3.0 mi SW 16.1 mph 20.7 mph 0.14 in Rain Light Rain
6:53 PM 60.1 °F - 59.0 °F 96% 29.54 in 2.5 mi SSW 13.8 mph 23.0 mph 0.18 in Rain Rain
7:09 PM 60.8 °F - 59.0 °F 94% 29.53 in 5.0 mi SSW 8.1 mph - 0.03 in Rain Light Rain
7:53 PM 61.0 °F - 59.0 °F 93% 29.52 in 7.0 mi WSW 8.1 mph - 0.04 in   Overcast
8:53 PM 59.0 °F - 57.0 °F 93% 29.52 in 10.0 mi SW 6.9 mph - N/A   Overcast
9:53 PM 59.0 °F - 57.0 °F 93% 29.53 in 10.0 mi WSW 5.8 mph - N/A   Overcast
10:53 PM 57.9 °F - 55.9 °F 93% 29.54 in 8.0 mi SW 5.8 mph - N/A   Overcast
11:16 PM 57.2 °F - 55.4 °F 94% 29.54 in 8.0 mi SW 6.9 mph - 0.00 in Rain Light Rain
11:53 PM 57.0 °F - 55.0 °F 93% 29.55 in 8.0 mi SW 11.5 mph - 0.00 in   Overcast